Temperature
8 9 9 9 9 9 9 10 10 10 10 10 10 10 11 11 11 11 11 11 11 11 11 11 11 11 11 11 11 11 11 11 11 11 11 11 11 11 11 11 10 10 10
8 8 8 8 8 9 9 9 9 9 9 10 10 10 10 10 11 11 11 11 11 11 11 11 11 11 11 11 11 10 10 10 10 10 10 10 10 10 10 10 10 10 10
8 8 8 8 8 8 8 9 9 9 9 9 9 10 10 10 10 10 10 10 10 11 11 11 11 10 10 10 10 10 10 10 10 10 10 10 10 10 10 10 10 10 10
7 7 7 7 8 8 8 8 8 8 9 9 9 9 9 10 10 10 10 10 10 10 10 10 10 10 10 10 10 10 10 10 10 10 10 10 10 10 10 10 10 10 10
7 7 7 7 7 7 8 8 8 8 8 8 8 9 9 9 10 10 10 10 10 10 10 10 10 10 10 10 10 10 9 10 10 10 9 10 10 10 10 10 10 9 9
6 6 6 6 7 7 7 7 7 8 8 8 8 8 8 9 9 9 9 9 9 9 10 10 10 10 10 10 9 9 9 9 9 9 9 9 9 9 9 9 9 9 9
6 6 6 6 6 6 6 7 7 7 7 7 7 8 8 8 8 9 9 9 9 9 9 9 9 9 9 9 9 9 9 9 9 9 9 9 9 9 9 9 9 9 9
5 5 5 5 5 6 6 6 6 6 6 6 7 7 7 8 8 8 9 9 9 9 9 9 9 9 9 9 9 9 9 9 9 9 9 9 9 9 9 9 9 9 9
5 5 5 5 5 5 5 6 6 6 6 6 6 6 6 7 7 8 8 8 8 8 8 8 8 9 9 9 9 9 9 9 9 9 9 9 9 9 9 9 9 9 9
4 4 4 5 5 5 5 5 5 6 6 6 6 6 6 6 6 6 7 7 8 8 8 8 8 8 8 8 8 8 8 8 8 8 8 8 8 8 9 9 9 9 9
3 4 4 4 4 4 4 5 5 5 5 5 6 6 6 6 6 6 6 7 7 7 7 8 8 8 8 8 8 8 8 8 8 8 8 8 8 8 8 8 8 8 8
3 3 3 3 4 4 4 4 4 5 5 5 5 5 5 5 6 6 6 6 6 7 7 7 7 7 7 8 8 8 8 8 8 8 8 8 8 8 8 8 8 8 8
2 2 2 3 3 3 4 4 4 4 4 4 5 5 5 5 5 5 5 5 5 6 6 7 7 7 7 7 7 7 7 7 8 8 8 8 8 8 8 8 8 8 8
1 1 2 2 2 2 3 3 3 4 4 4 4 4 4 5 5 5 5 5 5 5 5 6 6 7 7 7 7 7 7 7 7 7 7 7 8 8 8 8 8 8 8
0 1 1 1 2 2 2 3 3 3 3 3 4 4 4 4 4 4 4 5 5 4 4 5 5 6 6 6 6 6 7 7 7 7 7 7 7 7 7 7 8 8 8
-1 -0 0 1 1 2 2 2 2 3 3 3 3 3 3 4 4 4 4 4 4 4 4 5 5 6 6 6 6 6 6 6 6 7 7 7 7 7 7 7 7 7 7
-1 -1 -0 0 1 1 1 1 2 2 2 2 3 3 3 3 3 3 3 4 4 4 4 4 4 5 5 5 5 5 5 6 6 6 6 6 6 6 7 7 7 7 7
-2 -2 -1 -0 -0 0 0 1 1 1 1 2 2 2 2 2 3 3 3 3 3 3 3 4 4 4 4 5 5 5 5 5 5 5 6 6 6 6 6 6 6 6 6
-3 -2 -2 -1 -1 -1 -0 0 0 1 1 1 1 1 2 2 2 2 2 3 3 3 3 3 3 3 3 4 4 4 4 4 5 5 5 5 5 5 5 5 6 6 6
-3 -3 -3 -2 -2 -1 -1 -1 -0 -0 0 0 1 1 1 1 1 2 2 2 2 2 2 2 2 3 3 3 3 3 4 4 4 4 4 4 5 5 5 5 5 5 5
-4 -3 -3 -3 -2 -2 -2 -1 -1 -1 -1 -1 -0 -0 0 0 0 1 1 1 1 1 1 1 1 2 2 2 2 3 3 3 3 4 4 4 4 4 5 5 5 5 5
-4 -4 -4 -3 -3 -3 -2 -2 -2 -2 -2 -1 -1 -1 -1 -0 -0 -0 0 0 1 1 1 1 1 1 1 2 2 2 2 2 2 3 3 3 3 4 4 4 4 4 4
-5 -5 -4 -4 -4 -4 -3 -3 -3 -2 -2 -2 -2 -1 -1 -1 -1 -1 -1 -0 -0 0 0 1 1 1 1 2 2 2 2 2 2 3 3 3 3 3 4 4 4 4 4
-5 -5 -5 -5 -5 -4 -4 -4 -3 -3 -3 -3 -2 -2 -2 -2 -2 -1 -1 -1 -1 -0 0 0 0 1 1 1 2 2 2 2 2 2 2 2 3 3 3 3 3 4 4
-6 -6 -6 -5 -5 -5 -4 -4 -4 -4 -3 -3 -3 -3 -3 -2 -2 -2 -2 -1 -1 -1 -0 -0 -0 0 0 1 1 1 1 1 1 2 2 1 2 2 3 3 3 3 3
-7 -6 -6 -6 -5 -5 -5 -5 -4 -4 -4 -4 -4 -3 -3 -3 -3 -2 -2 -2 -2 -1 -1 -1 -1 -1 -0 -0 0 0 1 1 1 1 1 1 1 1 1 2 2 2 2
Wind_Speed
3 3 3 2 2 2 2 3 3 2 2 2 2 2 3 3 4 5 6 7 7 6 6 7 7 7 7 8 8 8 8 8 8 8 8 8 8 8 8 9 9 9 10
3 2 2 3 3 2 2 3 3 2 2 2 2 3 2 2 4 5 6 5 7 7 6 6 7 7 7 7 7 7 8 7 7 7 7 7 7 7 7 7 8 8 9
3 2 2 2 3 2 2 3 3 2 2 2 2 2 2 2 2 4 5 5 5 6 6 6 6 6 7 7 7 7 7 7 7 7 6 6 6 5 6 6 7 7 7
2 2 1 2 3 2 3 2 1 1 1 1 1 1 1 1 1 3 4 5 5 5 6 7 7 6 6 6 6 7 6 7 7 7 6 6 6 5 5 6 6 7 7
2 2 2 2 2 2 2 2 1 1 0 1 1 1 0 0 1 2 3 4 4 5 6 6 7 7 6 6 6 6 6 6 6 6 6 6 6 6 6 5 5 6 6
3 2 2 2 2 1 0 1 1 1 0 0 1 1 1 1 1 2 2 3 3 4 5 6 6 6 6 6 6 6 6 6 6 6 6 7 7 6 6 5 5 5 6
3 3 3 2 1 1 1 0 0 0 0 1 0 1 1 1 1 2 2 2 2 3 4 5 6 5 5 6 6 5 5 5 5 5 6 7 7 7 6 6 6 5 6
3 2 2 2 1 1 1 1 1 1 1 0 1 1 0 1 1 1 2 2 2 2 2 4 5 5 5 5 6 6 5 5 6 5 6 7 8 8 7 7 6 6 5
3 3 2 2 2 1 2 2 2 2 2 2 1 1 1 2 1 1 2 2 2 2 2 3 4 5 5 6 6 7 6 6 6 6 7 8 9 9 9 8 8 7 7
3 4 2 2 2 2 2 3 2 2 3 3 3 2 2 1 2 1 1 1 2 2 2 2 3 4 6 6 6 7 7 7 7 7 8 8 9 9 10 9 9 8 8
3 4 4 3 2 2 3 3 3 3 3 4 3 2 2 1 1 2 2 2 1 2 2 2 2 3 5 6 6 6 8 7 7 7 8 8 9 10 10 10 10 9 8
3 4 4 4 3 3 3 3 4 5 5 4 3 2 2 3 2 2 2 2 2 2 2 2 2 3 5 6 5 6 8 8 7 7 7 8 8 9 10 10 10 10 9
3 3 4 4 4 4 4 4 4 5 5 5 4 3 3 3 3 2 2 2 2 2 2 2 2 3 4 5 5 6 7 7 8 8 8 8 7 7 9 9 10 10 10
4 4 5 5 5 5 5 4 4 5 4 5 5 4 3 3 3 3 2 2 2 2 2 3 2 3 3 4 5 6 6 8 8 8 8 8 8 8 7 8 8 9 9
4 5 5 5 5 5 5 5 4 4 4 4 4 5 4 3 3 3 3 3 4 3 4 3 2 2 3 4 5 6 6 8 9 9 9 9 9 10 9 9 9 8 9
5 5 5 5 5 5 4 4 4 4 4 4 3 4 5 4 3 3 3 3 3 4 4 3 2 2 3 4 6 6 7 8 10 10 10 11 11 12 11 10 10 9 9
5 5 5 5 5 5 4 4 4 5 5 5 5 5 6 4 4 4 4 4 4 3 5 4 3 2 3 3 4 5 6 7 9 11 11 12 12 12 12 11 10 10 10
5 5 5 5 5 5 5 5 5 4 5 5 5 5 6 5 5 5 5 5 5 4 4 5 4 3 4 5 4 4 4 6 7 10 12 12 12 12 12 12 12 11 11
5 5 5 5 5 5 5 5 5 5 5 5 5 5 5 5 6 5 5 6 5 4 4 4 4 3 3 3 4 4 4 4 6 8 11 12 12 12 13 13 13 12 11
5 5 5 5 5 5 5 6 5 5 5 5 6 5 5 5 5 5 6 6 5 5 4 4 4 3 3 3 4 4 4 3 4 5 8 9 10 11 12 13 13 12 12
6 5 5 5 5 5 5 6 6 6 6 6 6 6 6 6 7 6 6 6 6 5 5 5 5 4 4 4 5 4 5 4 4 3 4 5 6 7 8 11 13 13 13
5 5 5 6 6 6 8 9 7 6 6 6 6 5 6 7 7 8 9 8 8 8 8 7 6 7 7 6 5 4 4 3 4 3 4 5 5 5 6 8 11 12 13
6 6 6 5 6 7 10 10 10 6 6 6 5 5 5 5 6 5 7 8 8 9 9 8 8 9 8 7 6 6 5 5 4 3 3 5 4 6 6 8 11 12 12
6 6 6 5 6 7 10 10 10 6 5 6 6 5 5 5 5 5 5 6 6 6 8 6 6 7 7 7 7 7 7 4 2 2 3 4 4 4 4 7 10 11 12
6 5 5 5 5 6 9 10 9 5 5 6 6 5 5 5 7 7 5 5 6 6 7 8 7 7 8 8 6 3 4 5 4 3 3 3 2 2 2 4 7 9 10
6 6 6 5 4 5 8 9 8 4 5 5 5 5 7 6 7 7 6 5 6 5 5 5 5 5 4 5 6 5 5 6 3 3 4 3 2 1 2 2 3 5 7
Wind_Direction
11 5 360 7 11 12 359 335 336 1 13 17 24 62 76 92 103 109 110 119 124 127 133 138 135 130 128 126 125 125 126 124 122 122 119 115 108 109 107 106 107 106 103
5 12 0 0 5 357 334 332 343 1 7 13 10 33 59 87 110 110 121 128 132 134 139 145 146 144 139 136 135 132 136 136 134 129 127 123 120 111 114 112 115 114 110
8 4 5 4 354 335 336 355 11 26 15 10 353 9 46 69 93 115 125 132 132 140 146 154 152 149 146 142 142 140 139 141 143 139 136 136 132 125 120 126 125 124 119
358 356 15 359 346 347 2 7 3 5 6 9 333 325 15 71 80 99 108 125 130 143 150 156 155 155 155 155 150 148 147 148 153 154 151 151 149 139 139 132 135 132 129
359 359 2 354 354 2 8 351 1 351 1 22 341 312 284 222 131 110 104 112 117 129 140 151 152 151 151 157 156 153 153 156 162 167 167 166 161 159 150 147 138 145 144
354 4 354 349 353 357 360 358 355 335 244 40 335 320 280 224 153 141 132 108 118 130 141 150 151 150 150 153 161 159 161 162 169 175 178 178 177 174 171 165 164 161 162
352 358 348 343 341 242 221 209 350 311 229 62 100 303 299 214 150 156 132 129 139 148 153 157 156 158 167 174 174 176 176 175 173 184 191 191 188 187 190 189 187 183 181
352 342 352 330 316 254 223 197 169 255 262 141 156 190 190 239 249 217 167 166 168 169 166 164 165 167 168 171 183 187 185 192 193 194 199 203 201 200 200 199 196 197 190
340 326 315 308 306 256 232 224 193 199 210 237 196 177 177 203 246 245 189 176 174 180 177 163 172 178 176 170 179 190 191 200 208 211 215 214 212 211 209 208 204 202 201
315 319 296 276 269 272 237 230 214 219 196 214 222 240 237 196 175 222 244 198 189 199 209 196 189 181 180 178 184 191 197 207 217 222 225 222 218 217 213 212 210 207 203
305 312 299 281 258 252 251 237 227 220 211 215 209 225 252 232 198 191 225 236 265 236 218 200 187 193 187 183 185 195 197 204 213 220 227 225 226 224 219 218 216 209 205
295 300 303 287 271 260 249 247 230 224 222 223 212 204 201 197 209 205 211 228 250 265 247 203 193 194 186 180 189 201 200 205 213 220 227 229 231 232 223 221 220 215 210
291 281 292 284 272 267 260 257 232 233 228 223 215 216 215 220 214 226 205 224 262 281 255 223 203 195 188 186 195 202 206 212 215 220 226 229 230 235 230 226 228 225 217
278 280 288 285 277 264 256 254 242 232 231 227 223 216 225 231 226 214 206 199 240 269 256 236 225 199 197 193 203 209 216 221 220 222 224 225 226 226 233 231 229 227 221
287 287 282 283 281 267 248 239 237 228 228 225 224 219 224 233 233 228 214 199 197 231 246 237 229 227 220 216 218 215 220 226 225 224 224 224 224 221 228 228 225 225 224
297 294 288 279 282 278 256 241 241 232 228 235 230 226 224 226 226 226 222 227 216 216 242 240 248 266 243 243 231 225 225 232 230 228 226 225 225 224 223 222 223 220 222
286 281 280 277 278 282 270 245 242 238 227 233 232 229 229 222 223 226 222 225 226 222 241 260 257 263 256 243 239 231 231 229 232 234 230 228 228 224 221 222 224 222 221
281 276 274 271 270 277 271 253 246 243 231 234 233 228 228 228 225 228 222 223 226 227 226 249 262 252 260 237 225 233 240 239 236 240 235 231 228 226 225 225 223 223 220
284 278 274 269 266 268 267 256 248 243 233 235 234 231 232 227 230 230 228 226 226 228 219 230 254 264 265 243 234 246 236 242 242 240 236 231 229 229 229 228 227 224 219
286 274 271 270 269 268 271 262 248 245 237 236 233 232 232 225 227 233 236 231 225 220 215 223 239 253 253 250 227 230 245 247 245 236 235 236 235 234 234 232 227 225 223
288 279 270 269 270 266 270 262 249 247 239 239 234 230 232 237 235 236 240 234 225 221 220 223 232 246 250 241 233 230 241 244 239 227 223 230 228 229 232 234 230 228 228
285 280 269 266 269 272 279 279 267 249 241 239 239 238 237 239 244 246 248 248 242 228 221 219 230 231 235 239 237 234 238 234 238 215 214 235 218 225 228 229 233 230 229
288 284 277 268 266 274 282 282 276 265 243 240 238 239 247 251 250 246 251 254 257 256 246 232 227 229 229 228 226 229 230 228 240 226 213 232 220 230 230 235 235 231 230
285 280 281 273 269 277 283 283 277 266 246 239 236 232 233 237 250 252 248 246 247 255 255 246 232 231 234 226 223 224 225 232 255 223 207 233 226 234 237 231 234 231 231
288 283 284 277 274 283 284 282 277 259 249 244 239 234 236 235 252 254 247 247 252 258 267 262 258 251 248 245 236 223 207 209 233 230 211 216 236 242 226 228 227 231 231
286 287 285 276 274 280 289 286 282 262 253 248 244 237 247 250 252 250 239 236 246 256 260 265 268 267 249 238 236 226 214 208 217 226 206 197 204 195 243 235 217 227 235
Height
1521 1522 1523 1524 1525 1526 1527 1528 1529 1531 1532 1533 1535 1537 1538 1539 1540 1541 1543 1544 1545 1546 1547 1548 1549 1550 1550 1551 1552 1553 1554 1555 1556 1557 1558 1558 1559 1560 1560 1561 1561 1562 1562
1520 1520 1521 1522 1523 1524 1525 1526 1528 1529 1530 1531 1533 1534 1536 1538 1539 1540 1541 1542 1543 1544 1546 1547 1548 1548 1549 1550 1551 1552 1553 1554 1555 1556 1557 1558 1559 1559 1560 1561 1561 1562 1562
1518 1518 1519 1520 1521 1522 1523 1524 1525 1527 1528 1529 1530 1532 1534 1535 1537 1538 1539 1540 1541 1543 1544 1545 1546 1547 1548 1549 1550 1551 1552 1553 1554 1555 1556 1557 1558 1559 1559 1560 1561 1561 1562
1515 1516 1517 1517 1519 1520 1521 1522 1523 1524 1525 1526 1528 1529 1531 1533 1534 1535 1537 1538 1539 1540 1542 1543 1544 1545 1546 1547 1549 1550 1551 1552 1553 1554 1555 1556 1557 1558 1558 1559 1560 1561 1561
1513 1514 1514 1515 1516 1517 1518 1519 1520 1521 1522 1523 1525 1526 1528 1530 1531 1533 1534 1535 1537 1538 1540 1541 1542 1543 1545 1546 1547 1548 1549 1550 1551 1553 1554 1555 1556 1556 1557 1558 1559 1560 1560
1510 1511 1512 1512 1513 1514 1515 1516 1517 1519 1520 1521 1522 1523 1525 1527 1528 1530 1531 1533 1534 1536 1537 1538 1540 1541 1542 1544 1545 1546 1547 1548 1550 1551 1552 1553 1554 1555 1556 1557 1557 1558 1559
1507 1507 1508 1509 1510 1511 1512 1513 1514 1516 1517 1518 1519 1521 1522 1524 1525 1527 1528 1530 1531 1533 1535 1536 1537 1538 1540 1541 1543 1544 1545 1546 1547 1549 1550 1551 1552 1553 1554 1555 1555 1556 1557
1503 1504 1505 1506 1507 1507 1508 1509 1511 1512 1513 1515 1516 1518 1519 1522 1522 1524 1525 1526 1528 1530 1531 1533 1534 1536 1537 1538 1540 1541 1542 1543 1545 1546 1547 1549 1550 1551 1552 1553 1553 1554 1555
1499 1500 1501 1502 1503 1504 1505 1506 1507 1508 1510 1512 1514 1515 1517 1517 1518 1520 1522 1523 1525 1526 1528 1530 1531 1532 1534 1535 1537 1538 1539 1540 1542 1543 1544 1545 1547 1548 1549 1550 1551 1551 1552
1496 1496 1497 1498 1499 1500 1501 1503 1504 1505 1507 1507 1510 1512 1514 1514 1516 1516 1518 1519 1521 1522 1524 1526 1527 1529 1530 1532 1533 1534 1536 1537 1538 1539 1541 1542 1543 1544 1545 1546 1547 1548 1549
1492 1492 1493 1494 1495 1496 1497 1498 1500 1501 1502 1503 1505 1507 1509 1511 1512 1513 1513 1515 1517 1518 1520 1522 1523 1525 1526 1528 1529 1530 1532 1533 1534 1536 1537 1538 1539 1541 1542 1543 1544 1545 1546
1488 1488 1489 1490 1491 1491 1492 1493 1495 1497 1498 1499 1500 1503 1505 1506 1508 1509 1510 1510 1512 1513 1515 1517 1519 1521 1522 1524 1525 1526 1527 1529 1530 1531 1533 1534 1535 1536 1537 1538 1540 1541 1542
1483 1484 1485 1485 1486 1486 1487 1489 1490 1492 1493 1495 1496 1498 1500 1502 1504 1505 1507 1507 1508 1509 1511 1513 1514 1516 1518 1519 1520 1521 1523 1524 1525 1526 1528 1529 1530 1531 1533 1534 1535 1536 1538
1479 1479 1480 1480 1481 1482 1483 1484 1486 1487 1489 1490 1491 1493 1495 1497 1499 1501 1502 1503 1504 1505 1506 1507 1509 1511 1512 1514 1515 1517 1518 1519 1520 1521 1523 1524 1525 1527 1528 1529 1530 1532 1533
1475 1474 1475 1475 1476 1477 1477 1479 1480 1481 1483 1484 1486 1488 1490 1492 1494 1496 1497 1499 1501 1500 1500 1502 1504 1505 1507 1508 1510 1511 1512 1514 1515 1516 1518 1519 1520 1522 1523 1524 1525 1527 1528
1470 1470 1470 1471 1471 1471 1472 1473 1474 1475 1477 1479 1480 1482 1484 1487 1489 1490 1492 1493 1495 1497 1496 1496 1498 1500 1501 1503 1504 1506 1507 1508 1509 1511 1512 1513 1515 1516 1518 1519 1520 1522 1523
1466 1465 1465 1465 1466 1466 1467 1468 1469 1470 1471 1473 1475 1477 1479 1481 1483 1485 1486 1488 1490 1491 1491 1491 1493 1495 1496 1497 1498 1500 1501 1502 1503 1505 1506 1508 1509 1511 1512 1513 1515 1517 1518
1461 1461 1461 1460 1461 1461 1462 1462 1463 1464 1466 1467 1469 1471 1472 1475 1477 1478 1480 1482 1484 1485 1486 1486 1487 1489 1490 1492 1493 1494 1495 1496 1497 1498 1500 1502 1503 1504 1506 1507 1509 1511 1512
1456 1456 1456 1455 1455 1456 1456 1457 1458 1459 1460 1462 1463 1464 1466 1468 1470 1472 1473 1475 1477 1479 1480 1481 1481 1482 1484 1485 1486 1487 1488 1489 1491 1492 1494 1495 1497 1498 1500 1501 1503 1505 1506
1451 1450 1450 1450 1450 1451 1451 1452 1452 1453 1454 1456 1457 1459 1460 1462 1463 1465 1467 1469 1470 1472 1474 1475 1475 1476 1478 1479 1480 1480 1481 1482 1484 1486 1487 1489 1491 1492 1494 1495 1497 1498 1500
1446 1445 1445 1445 1445 1445 1445 1446 1446 1447 1448 1450 1451 1452 1454 1456 1458 1459 1461 1462 1464 1466 1467 1468 1469 1470 1471 1473 1474 1474 1475 1476 1477 1479 1480 1482 1484 1485 1486 1488 1490 1492 1494
1440 1440 1439 1439 1439 1439 1439 1440 1440 1441 1442 1443 1444 1446 1448 1450 1452 1453 1455 1457 1458 1459 1460 1462 1463 1463 1465 1466 1468 1468 1469 1470 1470 1473 1474 1476 1477 1478 1480 1482 1483 1485 1487
1435 1434 1434 1433 1433 1433 1433 1434 1435 1435 1436 1437 1439 1440 1442 1444 1446 1447 1448 1450 1451 1453 1455 1456 1456 1457 1458 1460 1461 1461 1462 1464 1464 1466 1468 1469 1471 1472 1473 1475 1477 1479 1480
1431 1430 1429 1428 1428 1427 1428 1429 1429 1430 1430 1431 1433 1434 1435 1437 1439 1440 1442 1443 1445 1446 1447 1449 1450 1451 1453 1454 1455 1456 1456 1458 1460 1462 1463 1463 1464 1466 1467 1469 1471 1473 1474
1426 1425 1424 1424 1423 1422 1423 1424 1424 1424 1425 1425 1427 1428 1430 1431 1432 1435 1436 1437 1438 1439 1441 1442 1444 1445 1446 1447 1448 1449 1450 1452 1452 1454 1457 1458 1459 1460 1461 1462 1464 1466 1468
1422 1421 1420 1419 1418 1418 1418 1418 1419 1419 1418 1419 1420 1422 1423 1425 1427 1429 1430 1431 1432 1433 1435 1436 1437 1438 1439 1440 1441 1443 1444 1445 1446 1448 1450 1452 1453 1454 1455 1456 1458 1460 1461